TimeCDT,TemperatureF,Dew PointF,Humidity,Sea Level PressureIn,VisibilityMPH,Wind Direction,Wind SpeedMPH,Gust SpeedMPH,PrecipitationIn,Events,Conditions,WindDirDegrees,DateUTC
12:15 AM,42.8,12.2,29,30.15,10.0,East,9.2,-,N/A,,Clear,100,2013-03-25 05:15:00
12:35 AM,41.0,12.2,31,30.15,10.0,East,8.1,-,N/A,,Clear,90,2013-03-25 05:35:00
12:55 AM,41.0,12.2,31,30.15,10.0,East,8.1,-,N/A,,Clear,80,2013-03-25 05:55:00
1:15 AM,41.0,14.0,33,30.15,10.0,East,11.5,-,N/A,,Clear,80,2013-03-25 06:15:00
1:35 AM,41.0,14.0,33,30.16,10.0,East,8.1,-,N/A,,Clear,80,2013-03-25 06:35:00
1:55 AM,41.0,14.0,33,30.15,10.0,East,9.2,-,N/A,,Clear,90,2013-03-25 06:55:00
2:15 AM,39.2,14.0,36,30.16,10.0,East,10.4,-,N/A,,Clear,90,2013-03-25 07:15:00
2:35 AM,39.2,14.0,36,30.15,10.0,East,9.2,-,N/A,,Clear,90,2013-03-25 07:35:00
2:55 AM,37.4,14.0,38,30.16,10.0,East,9.2,-,N/A,,Clear,90,2013-03-25 07:55:00
3:15 AM,37.4,14.0,38,30.16,10.0,ENE,9.2,-,N/A,,Clear,70,2013-03-25 08:15:00
3:35 AM,37.4,14.0,38,30.16,10.0,ENE,8.1,-,N/A,,Clear,70,2013-03-25 08:35:00
3:55 AM,37.4,12.2,36,30.17,10.0,NE,6.9,-,N/A,,Clear,50,2013-03-25 08:55:00
4:15 AM,35.6,12.2,38,30.17,10.0,NE,5.8,-,N/A,,Clear,50,2013-03-25 09:15:00
4:35 AM,35.6,12.2,38,30.19,10.0,NNE,5.8,-,N/A,,Clear,30,2013-03-25 09:35:00
4:55 AM,33.8,12.2,41,30.20,10.0,NE,5.8,-,N/A,,Clear,40,2013-03-25 09:55:00
5:15 AM,33.8,12.2,41,30.20,10.0,NNE,5.8,-,N/A,,Clear,30,2013-03-25 10:15:00
5:35 AM,33.8,12.2,41,30.21,10.0,NE,5.8,-,N/A,,Clear,50,2013-03-25 10:35:00
5:55 AM,33.8,12.2,41,30.22,10.0,NE,6.9,-,N/A,,Clear,40,2013-03-25 10:55:00
6:15 AM,33.8,12.2,41,30.23,10.0,NE,5.8,-,N/A,,Clear,40,2013-03-25 11:15:00
6:35 AM,33.8,12.2,41,30.24,10.0,NE,6.9,-,N/A,,Clear,40,2013-03-25 11:35:00
6:55 AM,32.0,12.2,44,30.26,10.0,NE,6.9,-,N/A,,Clear,40,2013-03-25 11:55:00
7:15 AM,32.0,12.2,44,30.26,10.0,NNE,6.9,-,N/A,,Clear,30,2013-03-25 12:15:00
7:35 AM,32.0,12.2,44,30.28,10.0,NNE,5.8,-,N/A,,Clear,30,2013-03-25 12:35:00
7:55 AM,32.0,12.2,44,30.29,10.0,NNE,6.9,-,N/A,,Clear,30,2013-03-25 12:55:00
8:15 AM,32.0,12.2,44,30.30,10.0,NNE,4.6,-,N/A,,Clear,20,2013-03-25 13:15:00
8:35 AM,32.0,14.0,48,30.31,10.0,ENE,6.9,-,N/A,,Clear,60,2013-03-25 13:35:00
8:55 AM,33.8,14.0,44,30.33,10.0,East,8.1,-,N/A,,Clear,80,2013-03-25 13:55:00
9:15 AM,37.4,14.0,38,30.34,10.0,East,10.4,16.1,N/A,,Clear,80,2013-03-25 14:15:00
9:35 AM,37.4,12.2,36,30.35,10.0,East,11.5,-,N/A,,Clear,90,2013-03-25 14:35:00
9:55 AM,41.0,12.2,31,30.35,10.0,East,16.1,-,N/A,,Clear,80,2013-03-25 14:55:00
10:15 AM,41.0,10.4,29,30.35,10.0,East,12.7,17.3,N/A,,Clear,90,2013-03-25 15:15:00
10:35 AM,42.8,10.4,27,30.36,10.0,East,10.4,-,N/A,,Clear,100,2013-03-25 15:35:00
10:55 AM,44.6,8.6,23,30.36,10.0,East,12.7,-,N/A,,Clear,90,2013-03-25 15:55:00
11:15 AM,44.6,8.6,23,30.35,10.0,East,10.4,-,N/A,,Clear,100,2013-03-25 16:15:00
11:35 AM,46.4,5.0,18,30.35,10.0,East,5.8,-,N/A,,Clear,90,2013-03-25 16:35:00
11:55 AM,48.2,5.0,17,30.35,10.0,ESE,8.1,17.3,N/A,,Clear,120,2013-03-25 16:55:00
12:15 PM,50.0,5.0,16,30.34,10.0,SE,9.2,16.1,N/A,,Clear,130,2013-03-25 17:15:00
12:35 PM,50.0,5.0,16,30.34,10.0,ESE,5.8,-,N/A,,Clear,110,2013-03-25 17:35:00
12:55 PM,51.8,3.2,14,30.33,10.0,ESE,8.1,-,N/A,,Clear,120,2013-03-25 17:55:00
1:15 PM,51.8,3.2,14,30.31,10.0,ENE,8.1,-,N/A,,Clear,70,2013-03-25 18:15:00
1:35 PM,51.8,3.2,14,30.31,10.0,SE,12.7,16.1,N/A,,Clear,130,2013-03-25 18:35:00
1:55 PM,53.6,5.0,14,30.29,10.0,ESE,11.5,-,N/A,,Clear,120,2013-03-25 18:55:00
2:15 PM,53.6,5.0,14,30.28,10.0,South,5.8,-,N/A,,Clear,180,2013-03-25 19:15:00
2:35 PM,55.4,5.0,13,30.28,10.0,SE,9.2,-,N/A,,Clear,130,2013-03-25 19:35:00
2:55 PM,55.4,6.8,14,30.26,10.0,SSW,5.8,-,N/A,,Clear,210,2013-03-25 19:55:00
3:15 PM,55.4,6.8,14,30.25,10.0,ESE,4.6,-,N/A,,Clear,110,2013-03-25 20:15:00
3:35 PM,55.4,6.8,14,30.24,10.0,South,6.9,-,N/A,,Clear,170,2013-03-25 20:35:00
3:55 PM,57.2,8.6,14,30.24,10.0,SSW,3.5,-,N/A,,Clear,210,2013-03-25 20:55:00
4:15 PM,59.0,8.6,14,30.24,10.0,SSE,9.2,17.3,N/A,,Clear,160,2013-03-25 21:15:00
4:35 PM,55.4,6.8,14,30.23,10.0,Calm,Calm,-,N/A,,Clear,0,2013-03-25 21:35:00
4:55 PM,57.2,6.8,13,30.23,10.0,East,6.9,-,N/A,,Clear,100,2013-03-25 21:55:00
5:15 PM,57.2,6.8,13,30.22,10.0,SSE,5.8,-,N/A,,Clear,150,2013-03-25 22:15:00
5:35 PM,59.0,8.6,14,30.22,10.0,East,10.4,-,N/A,,Clear,80,2013-03-25 22:35:00
5:55 PM,57.2,6.8,13,30.22,10.0,East,5.8,-,N/A,,Clear,100,2013-03-25 22:55:00
6:15 PM,57.2,6.8,13,30.22,10.0,SE,4.6,-,N/A,,Clear,140,2013-03-25 23:15:00
6:35 PM,57.2,6.8,13,30.23,10.0,ESE,4.6,-,N/A,,Clear,120,2013-03-25 23:35:00
6:55 PM,55.4,6.8,14,30.23,10.0,SSE,3.5,-,N/A,,Clear,150,2013-03-25 23:55:00
7:15 PM,55.4,6.8,14,30.23,10.0,East,6.9,-,N/A,,Clear,100,2013-03-26 00:15:00
7:35 PM,55.4,6.8,14,30.24,10.0,East,3.5,-,N/A,,Clear,80,2013-03-26 00:35:00
7:55 PM,55.4,5.0,13,30.25,10.0,East,4.6,-,N/A,,Clear,90,2013-03-26 00:55:00
8:15 PM,53.6,5.0,14,30.25,10.0,East,6.9,-,N/A,,Clear,90,2013-03-26 01:15:00
8:35 PM,51.8,5.0,15,30.26,10.0,East,6.9,-,N/A,,Clear,80,2013-03-26 01:35:00
8:55 PM,48.2,5.0,17,30.28,10.0,NE,11.5,-,N/A,,Clear,40,2013-03-26 01:55:00
9:15 PM,48.2,5.0,17,30.29,10.0,NE,12.7,-,N/A,,Clear,50,2013-03-26 02:15:00
9:35 PM,46.4,5.0,18,30.30,10.0,NE,9.2,-,N/A,,Clear,50,2013-03-26 02:35:00
9:55 PM,46.4,5.0,18,30.31,10.0,NE,10.4,-,N/A,,Clear,50,2013-03-26 02:55:00
10:15 PM,44.6,6.8,21,30.32,10.0,NE,9.2,-,N/A,,Clear,50,2013-03-26 03:15:00
10:35 PM,44.6,6.8,21,30.33,10.0,ENE,9.2,-,N/A,,Clear,60,2013-03-26 03:35:00
10:55 PM,44.6,6.8,21,30.34,10.0,ENE,9.2,-,N/A,,Clear,70,2013-03-26 03:55:00
11:15 PM,44.6,8.6,23,30.35,10.0,East,9.2,-,N/A,,Clear,80,2013-03-26 04:15:00
11:35 PM,44.6,8.6,23,30.36,10.0,East,9.2,-,N/A,,Clear,80,2013-03-26 04:35:00
11:55 PM,42.8,8.6,25,30.36,10.0,East,10.4,16.1,N/A,,Clear,80,2013-03-26 04:55:00